Farmingdale, NY

7:47 AM EDT on July 30, 2016 (GMT -0400)
Republic

Weather History for KFRG - March, 2013

Change the Weather History Date:

Monday, March 25, 2013

  Actual Average Record
Temperature  
Mean Temperature 36 °F -  
Max Temperature 39 °F 49 °F 63 °F (2016)
Min Temperature 33 °F 34 °F 19 °F (2014)
Degree Days  
Heating Degree Days 29    
Moisture  
Dew Point 31 °F    
Average Humidity 82    
Maximum Humidity 100    
Minimum Humidity 58    
Precipitation  
Precipitation 0.23 in - - ()
Sea Level Pressure  
Sea Level Pressure 29.54 in    
Wind  
Wind Speed 8 mph (NE)    
Max Wind Speed 17 mph    
Max Gust Speed 25 mph    
Visibility 6 miles    
Events Rain , Snow    
Averages and records for this station are not official NWS values.
T = Trace of Precipitation, MM = Missing Value Source: NWS Daily Summary

Daily Weather History Graph

Daily Weather History Graph

Search for Another Location

Airport or City:

Trip Planner

Search our weather history database for the weather conditions in past years. The results will help you decide how hot, cold, wet, or windy it might be!

Date:

Astronomy

Mar. 25, 2013 Rise Set
Actual Time 6:48 AM EDT 7:11 PM EDT
Civil Twilight 6:21 AM EDT 7:38 PM EDT
Nautical Twilight 5:48 AM EDT 8:11 PM EDT
Astronomical Twilight 5:15 AM EDT 8:44 PM EDT
Moon 5:39 PM EDT (3/25) 5:30 AM EDT (3/25)
Length of Visible Light 13h 17m
Length of Day
12h 22m
Waxing Gibbous, 96% of the Moon is Illuminated
Mar 25
Waxing Gibbous
Mar 27
Full
Apr 3
Last Quarter
Apr 10
New
Apr 18
First Quarter

Hourly Weather History & Observations

Time (EDT) Temp. Windchill Dew Point Humidity Pressure Visibility Wind Dir Wind Speed Gust Speed Precip Events Conditions
12:53 AM 37.0 °F 34.5 °F 27.0 °F 67% 29.72 in 10.0 mi East 3.5 mph - N/A   Clear
1:53 AM 37.0 °F - 26.1 °F 65% 29.71 in 10.0 mi Calm Calm - N/A   Clear
2:53 AM 36.0 °F 33.3 °F 27.0 °F 70% 29.68 in 10.0 mi ENE 3.5 mph - N/A   Clear
3:53 AM 36.0 °F 32.1 °F 27.0 °F 70% 29.65 in 10.0 mi ENE 4.6 mph - N/A   Scattered Clouds
4:53 AM 36.0 °F 29.6 °F 28.0 °F 73% 29.63 in 10.0 mi NE 8.1 mph - N/A   Mostly Cloudy
5:53 AM 36.0 °F 29.6 °F 28.0 °F 73% 29.62 in 10.0 mi NE 8.1 mph - N/A   Overcast
6:53 AM 37.0 °F 30.4 °F 28.9 °F 73% 29.62 in 10.0 mi ENE 9.2 mph - N/A   Overcast
7:53 AM 37.0 °F 29.3 °F 27.0 °F 67% 29.59 in 10.0 mi NE 11.5 mph - N/A   Overcast
8:53 AM 37.9 °F 30.5 °F 26.1 °F 62% 29.61 in 10.0 mi ENE 11.5 mph 19.6 mph N/A   Overcast
9:53 AM 39.0 °F 31.8 °F 26.1 °F 60% 29.60 in 10.0 mi NE 11.5 mph 21.9 mph N/A   Overcast
10:53 AM 39.9 °F 32.5 °F 26.1 °F 58% 29.57 in 10.0 mi East 12.7 mph 20.7 mph N/A   Overcast
11:53 AM 39.9 °F 33.4 °F 28.0 °F 63% 29.56 in 10.0 mi ENE 10.4 mph - N/A   Overcast
12:22 PM 39.2 °F 31.2 °F 30.2 °F 70% 29.54 in 10.0 mi ENE 13.8 mph 23.0 mph N/A   Overcast
12:42 PM 37.4 °F 27.8 °F 30.2 °F 75% 29.53 in 6.0 mi NE 17.3 mph 25.3 mph 0.00 in Rain Light Rain
12:44 PM 37.4 °F 28.2 °F 30.2 °F 75% 29.53 in 3.0 mi ENE 16.1 mph 25.3 mph 0.00 in Rain Light Rain
12:53 PM 37.0 °F 28.1 °F 30.9 °F 79% 29.53 in 3.0 mi ENE 15.0 mph 20.7 mph 0.00 in Rain Light Rain
1:26 PM 35.6 °F 26.6 °F 30.2 °F 81% 29.51 in 2.5 mi ENE 13.8 mph 25.3 mph 0.01 in Snow Light Snow
1:38 PM 35.6 °F 25.5 °F 32.0 °F 87% 29.50 in 3.0 mi ENE 17.3 mph 25.3 mph 0.02 in Snow Light Snow
1:53 PM 36.0 °F 27.1 °F 30.9 °F 82% 29.49 in 3.0 mi ENE 13.8 mph 25.3 mph 0.02 in Snow Light Snow
2:53 PM 37.0 °F 28.5 °F 32.0 °F 82% 29.47 in 3.0 mi East 13.8 mph 23.0 mph 0.01 in   Overcast
3:53 PM 37.0 °F 30.4 °F 34.0 °F 89% 29.46 in 3.0 mi East 9.2 mph - 0.02 in   Overcast
4:00 PM 37.4 °F 30.8 °F 33.8 °F 87% 29.46 in 3.0 mi ENE 9.2 mph - 0.00 in Rain Light Rain
4:51 PM 37.4 °F 31.4 °F 33.8 °F 87% 29.45 in 3.0 mi NE 8.1 mph - 0.02 in   Overcast
4:53 PM 37.0 °F 31.6 °F 34.0 °F 89% 29.45 in 3.0 mi ENE 6.9 mph - 0.02 in   Overcast
5:29 PM 37.4 °F 30.8 °F 33.8 °F 87% 29.45 in 3.0 mi NE 9.2 mph - 0.01 in   Overcast
5:39 PM 37.4 °F 32.8 °F 33.8 °F 87% 29.46 in 3.0 mi NNE 5.8 mph - 0.01 in   Overcast
5:53 PM 36.0 °F 31.1 °F 34.0 °F 93% 29.46 in 3.0 mi NNE 5.8 mph - 0.02 in   Overcast
6:32 PM 35.6 °F 26.6 °F 33.8 °F 93% 29.47 in 3.0 mi NNE 13.8 mph 17.3 mph 0.03 in Rain Rain
6:53 PM 34.0 °F 25.5 °F 32.0 °F 92% 29.49 in 3.0 mi NNE 11.5 mph - 0.05 in Snow Light Snow
7:06 PM 33.8 °F 25.3 °F 32.0 °F 93% 29.49 in 3.0 mi NE 11.5 mph - 0.02 in Snow Light Snow
7:53 PM 34.0 °F 27.2 °F 32.0 °F 92% 29.52 in 3.0 mi NE 8.1 mph - 0.05 in Snow Light Snow
8:03 PM 33.8 °F 29.6 °F 32.0 °F 93% 29.52 in 3.0 mi NE 4.6 mph - 0.01 in Snow Light Snow
8:14 PM 33.8 °F 28.6 °F 32.0 °F 93% 29.53 in 2.0 mi NNE 5.8 mph - 0.01 in Snow Light Snow
8:22 PM 33.8 °F 29.6 °F 32.0 °F 93% 29.53 in 3.0 mi North 4.6 mph - 0.02 in Snow Light Snow
8:53 PM 33.1 °F 28.7 °F 32.0 °F 96% 29.55 in 4.0 mi North 4.6 mph - 0.03 in Snow Light Snow
9:27 PM 33.8 °F 27.7 °F 33.8 °F 100% 29.55 in 8.0 mi North 6.9 mph - 0.00 in Rain Light Freezing Rain
9:34 PM 35.6 °F 29.9 °F 33.8 °F 93% 29.55 in 8.0 mi North 6.9 mph - 0.00 in Rain Light Freezing Rain
9:44 PM 35.6 °F 29.2 °F 32.0 °F 87% 29.55 in 5.0 mi North 8.1 mph - 0.01 in Rain Light Freezing Rain
9:53 PM 35.1 °F 27.9 °F 32.0 °F 89% 29.56 in 5.0 mi NNE 9.2 mph 17.3 mph 0.01 in Rain Light Freezing Rain
10:14 PM 35.6 °F 29.9 °F 33.8 °F 93% 29.56 in 9.0 mi North 6.9 mph - 0.00 in Rain Light Freezing Rain
10:27 PM 35.6 °F 32.8 °F 33.8 °F 93% 29.56 in 10.0 mi NW 3.5 mph - 0.00 in   Overcast
10:53 PM 34.0 °F 29.8 °F 33.1 °F 96% 29.57 in 7.0 mi NW 4.6 mph - 0.00 in   Overcast
11:53 PM 35.1 °F 32.2 °F 33.1 °F 92% 29.57 in 10.0 mi WNW 3.5 mph - N/A   Overcast